When you browse on this site, cookies collect data to enhance your experience and personalize the content and advertising you see.
Visit our Privacy Policy to learn more. By continuing to use the site, you agree to this use of cookies and data.
  • In Österreich
  • Länderverzeichnis
  • Für 7 Tage
  • Wassertemperatur
  • Wetterkarte
  • News
  • Widgets
  • user-avatar
    Anmelden

    Stündliche Wetter Zatemne

    Heute, 23 August, Freitag

    Zeit Temperatur Niederschläge Wind Luftdruck Luftfeuchtigkeit
    00:00 +16°C° 0.1 mm 3 m/S 741 mmHg 91%
    01:00 +16°C° 0.1 mm 3 m/S 741 mmHg 92%
    02:00 +16°C° 0.1 mm 3 m/S 741 mmHg 93%
    03:00 +14°C° 0.3 mm 3 m/S 741 mmHg 94%
    04:00 +14°C° 0.3 mm 3 m/S 741 mmHg 95%
    05:00 +14°C° 0.3 mm 3 m/S 741 mmHg 95%
    06:00 +16°C° 0 mm 3 m/S 741 mmHg 92%
    07:00 +17°C° 0 mm 3 m/S 741 mmHg 89%
    08:00 +18°C° 0 mm 3 m/S 742 mmHg 86%
    09:00 +20°C° 0 mm 3 m/S 742 mmHg 80%
    10:00 +21°C° 0 mm 4 m/S 742 mmHg 74%
    11:00 +22°C° 0 mm 4 m/S 742 mmHg 68%
    12:00 +23°C° 0 mm 4 m/S 742 mmHg 66%
    13:00 +25°C° 0 mm 4 m/S 741 mmHg 64%
    14:00 +25°C° 0 mm 4 m/S 741 mmHg 61%
    15:00 +25°C° 0 mm 4 m/S 741 mmHg 62%
    16:00 +25°C° 0 mm 4 m/S 741 mmHg 63%
    17:00 +25°C° 0 mm 4 m/S 741 mmHg 64%
    18:00 +22°C° 0 mm 3 m/S 741 mmHg 68%
    19:00 +21°C° 0 mm 3 m/S 741 mmHg 72%
    20:00 +19°C° 0 mm 3 m/S 741 mmHg 76%
    21:00 +18°C° 0 mm 3 m/S 741 mmHg 77%
    22:00 +18°C° 0 mm 3 m/S 741 mmHg 78%
    23:00 +17°C° 0 mm 3 m/S 741 mmHg 79%

    Morgen, 24 August, Samstag

    Zeit Temperatur Niederschläge Wind Luftdruck Luftfeuchtigkeit
    00:00 +17°C° 0 mm 3 m/S 741 mmHg 78%
    01:00 +17°C° 0 mm 3 m/S 741 mmHg 77%
    02:00 +17°C° 0 mm 3 m/S 741 mmHg 77%
    03:00 +17°C° 0 mm 3 m/S 740 mmHg 76%
    04:00 +16°C° 0 mm 3 m/S 740 mmHg 75%
    05:00 +16°C° 0 mm 3 m/S 740 mmHg 74%
    06:00 +17°C° 0 mm 3 m/S 740 mmHg 73%
    07:00 +18°C° 0 mm 3 m/S 740 mmHg 73%
    08:00 +18°C° 0 mm 4 m/S 740 mmHg 73%
    09:00 +20°C° 0 mm 4 m/S 740 mmHg 70%
    10:00 +21°C° 0 mm 4 m/S 741 mmHg 66%
    11:00 +23°C° 0 mm 4 m/S 741 mmHg 63%
    12:00 +23°C° 0 mm 4 m/S 740 mmHg 61%
    13:00 +25°C° 0 mm 4 m/S 740 mmHg 59%
    14:00 +26°C° 0 mm 4 m/S 740 mmHg 57%
    15:00 +25°C° 0 mm 4 m/S 740 mmHg 59%
    16:00 +25°C° 0 mm 4 m/S 740 mmHg 60%
    17:00 +25°C° 0 mm 4 m/S 739 mmHg 62%
    18:00 +22°C° 0 mm 4 m/S 739 mmHg 65%
    19:00 +20°C° 0 mm 4 m/S 739 mmHg 68%
    20:00 +19°C° 0 mm 3 m/S 739 mmHg 71%
    21:00 +18°C° 0 mm 3 m/S 739 mmHg 70%
    22:00 +17°C° 0 mm 3 m/S 739 mmHg 69%
    23:00 +17°C° 0 mm 3 m/S 740 mmHg 68%

    übermorgen, 25 August, Sonntag

    Zeit Temperatur Niederschläge Wind Luftdruck Luftfeuchtigkeit
    00:00 +16°C° 0 mm 3 m/S 739 mmHg 68%
    01:00 +16°C° 0 mm 3 m/S 739 mmHg 69%
    02:00 +14°C° 0 mm 3 m/S 739 mmHg 69%
    03:00 +14°C° 0 mm 3 m/S 739 mmHg 70%
    04:00 +14°C° 0 mm 3 m/S 739 mmHg 70%
    05:00 +14°C° 0 mm 3 m/S 739 mmHg 70%
    06:00 +16°C° 0 mm 3 m/S 739 mmHg 70%
    07:00 +17°C° 0 mm 3 m/S 739 mmHg 69%
    08:00 +18°C° 0 mm 3 m/S 739 mmHg 68%
    09:00 +20°C° 0 mm 3 m/S 739 mmHg 65%
    10:00 +22°C° 0 mm 4 m/S 740 mmHg 62%
    11:00 +23°C° 0 mm 4 m/S 740 mmHg 58%
    12:00 +25°C° 0 mm 4 m/S 740 mmHg 57%
    13:00 +26°C° 0 mm 4 m/S 739 mmHg 55%
    14:00 +27°C° 0 mm 4 m/S 739 mmHg 53%
    15:00 +26°C° 0 mm 4 m/S 739 mmHg 55%
    16:00 +26°C° 0 mm 4 m/S 739 mmHg 57%
    17:00 +26°C° 0 mm 3 m/S 739 mmHg 59%
    18:00 +23°C° 0 mm 4 m/S 739 mmHg 62%
    19:00 +21°C° 0 mm 4 m/S 739 mmHg 65%
    20:00 +19°C° 0 mm 4 m/S 739 mmHg 68%
    21:00 +19°C° 0 mm 4 m/S 739 mmHg 69%
    22:00 +18°C° 0 mm 4 m/S 739 mmHg 69%
    23:00 +17°C° 0 mm 4 m/S 739 mmHg 69%

    26 August, Montag

    Zeit Temperatur Niederschläge Wind Luftdruck Luftfeuchtigkeit
    00:00 +17°C° 0 mm 3 m/S 739 mmHg 70%
    01:00 +16°C° 0 mm 3 m/S 739 mmHg 71%
    02:00 +16°C° 0 mm 3 m/S 739 mmHg 72%
    03:00 +14°C° 0 mm 3 m/S 739 mmHg 73%
    04:00 +14°C° 0 mm 3 m/S 738 mmHg 73%
    05:00 +14°C° 0 mm 3 m/S 738 mmHg 74%
    06:00 +16°C° 0 mm 3 m/S 738 mmHg 72%
    07:00 +17°C° 0 mm 3 m/S 738 mmHg 70%
    08:00 +18°C° 0 mm 4 m/S 738 mmHg 68%
    09:00 +20°C° 0 mm 4 m/S 739 mmHg 65%
    10:00 +22°C° 0 mm 4 m/S 739 mmHg 62%
    11:00 +25°C° 0 mm 4 m/S 739 mmHg 58%
    12:00 +26°C° 0 mm 4 m/S 739 mmHg 56%
    13:00 +27°C° 0 mm 4 m/S 738 mmHg 53%
    14:00 +28°C° 0 mm 5 m/S 738 mmHg 51%
    15:00 +27°C° 0 mm 4 m/S 738 mmHg 53%
    16:00 +27°C° 0 mm 4 m/S 738 mmHg 56%
    17:00 +27°C° 0 mm 4 m/S 737 mmHg 58%
    18:00 +25°C° 0 mm 3 m/S 737 mmHg 61%
    19:00 +22°C° 0 mm 3 m/S 737 mmHg 64%
    20:00 +20°C° 0 mm 3 m/S 737 mmHg 67%
    21:00 +20°C° 0 mm 3 m/S 737 mmHg 69%
    22:00 +19°C° 0 mm 3 m/S 737 mmHg 70%
    23:00 +18°C° 0 mm 3 m/S 737 mmHg 71%

    27 August, Dienstag

    Zeit Temperatur Niederschläge Wind Luftdruck Luftfeuchtigkeit
    00:00 +18°C° 0 mm 3 m/S 737 mmHg 74%
    01:00 +17°C° 0 mm 3 m/S 737 mmHg 76%
    02:00 +17°C° 0 mm 3 m/S 737 mmHg 78%
    03:00 +16°C° 0 mm 2 m/S 737 mmHg 79%
    04:00 +16°C° 0 mm 2 m/S 737 mmHg 81%
    05:00 +16°C° 0 mm 2 m/S 737 mmHg 82%
    06:00 +17°C° 0 mm 2 m/S 737 mmHg 78%
    07:00 +18°C° 0 mm 2 m/S 737 mmHg 75%
    08:00 +19°C° 0 mm 2 m/S 737 mmHg 71%
    09:00 +21°C° 0 mm 2 m/S 737 mmHg 66%
    10:00 +24°C° 0 mm 2 m/S 738 mmHg 60%
    11:00 +26°C° 0 mm 3 m/S 738 mmHg 54%
    12:00 +27°C° 0 mm 3 m/S 738 mmHg 51%
    13:00 +28°C° 0 mm 3 m/S 737 mmHg 48%
    14:00 +29°C° 0 mm 3 m/S 737 mmHg 45%
    15:00 +29°C° 0 mm 2 m/S 737 mmHg 48%
    16:00 +28°C° 0 mm 2 m/S 737 mmHg 50%
    17:00 +28°C° 0 mm 2 m/S 737 mmHg 53%
    18:00 +26°C° 0 mm 2 m/S 737 mmHg 57%
    19:00 +24°C° 0 mm 2 m/S 737 mmHg 61%
    20:00 +21°C° 0 mm 2 m/S 737 mmHg 64%
    21:00 +20°C° 0 mm 2 m/S 737 mmHg 67%
    22:00 +19°C° 0 mm 2 m/S 737 mmHg 69%
    23:00 +18°C° 0 mm 3 m/S 737 mmHg 72%

    28 August, Mittwoch

    Zeit Temperatur Niederschläge Wind Luftdruck Luftfeuchtigkeit
    00:00 +18°C° 0 mm 3 m/S 738 mmHg 74%
    01:00 +18°C° 0 mm 3 m/S 738 mmHg 77%
    02:00 +17°C° 0 mm 3 m/S 738 mmHg 79%
    03:00 +17°C° 0 mm 3 m/S 738 mmHg 80%
    04:00 +17°C° 0 mm 3 m/S 737 mmHg 82%
    05:00 +16°C° 0 mm 3 m/S 737 mmHg 83%
    06:00 +18°C° 0 mm 3 m/S 738 mmHg 79%
    07:00 +19°C° 0 mm 3 m/S 738 mmHg 75%
    08:00 +20°C° 0 mm 4 m/S 738 mmHg 71%
    09:00 +22°C° 0 mm 4 m/S 738 mmHg 66%
    10:00 +25°C° 0 mm 4 m/S 738 mmHg 61%
    11:00 +27°C° 0 mm 4 m/S 738 mmHg 56%
    12:00 +27°C° 0 mm 4 m/S 738 mmHg 54%
    13:00 +28°C° 0 mm 4 m/S 738 mmHg 52%
    14:00 +29°C° 0 mm 4 m/S 737 mmHg 50%
    15:00 +28°C° 0 mm 4 m/S 737 mmHg 53%
    16:00 +28°C° 0 mm 4 m/S 737 mmHg 56%
    17:00 +28°C° 0 mm 4 m/S 736 mmHg 59%
    18:00 +26°C° 0 mm 4 m/S 736 mmHg 61%
    19:00 +23°C° 0 mm 4 m/S 736 mmHg 64%
    20:00 +21°C° 0 mm 4 m/S 736 mmHg 67%
    21:00 +20°C° 0 mm 4 m/S 736 mmHg 70%
    22:00 +19°C° 0 mm 4 m/S 737 mmHg 72%
    23:00 +19°C° 0 mm 4 m/S 737 mmHg 75%
    Mehr zeigen